Location: Spangle
(47.4302°N, 117.3779°W)
Time: 10:54:41
(UTC+00:00)

ISS - Visible Passes

Search period start: 18 April 2026 00:00
Search period end: 28 April 2026 00:00
Orbit: 416 x 425 km, 51.6° (Epoch: 18 April)

Date Brightness Start Highest point End Pass type
(mag) Time Alt. Az. Time Alt. Az. Time Alt. Az.
19 Apr -2.0 11:57:46 10° SSW 12:00:38 26° SE 12:03:30 10° E visible
20 Apr -1.5 11:12:02 14° SSE 11:13:30 17° SE 11:15:48 10° E visible
21 Apr -1.0 10:26:36 11° SE 10:26:36 11° SE 10:27:23 10° ESE visible
21 Apr -3.4 11:59:34 12° SW 12:02:39 60° SSE 12:06:00 10° ENE visible
22 Apr -2.9 11:14:03 26° SSW 11:15:24 40° SE 11:18:36 10° ENE visible
23 Apr -2.2 10:28:28 26° SE 10:28:28 26° SE 10:31:04 10° E visible
23 Apr -3.6 12:01:26 10° WSW 12:04:48 68° NNW 12:08:11 10° ENE visible
24 Apr -0.9 09:42:49 12° E 09:42:49 12° E 09:43:19 10° E visible
24 Apr -3.8 11:15:46 28° WSW 11:17:26 88° SSE 11:20:50 10° ENE visible
25 Apr -3.7 10:30:04 61° SSE 10:30:05 61° SSE 10:33:26 10° ENE visible
25 Apr -2.8 12:03:46 10° W 12:07:01 44° N 12:10:18 10° ENE visible
26 Apr -1.8 09:44:20 24° E 09:44:20 24° E 09:45:59 10° ENE visible
26 Apr -3.2 11:17:17 18° W 11:19:34 53° NNW 11:22:54 10° ENE visible
27 Apr -3.6 10:31:29 52° WNW 10:32:07 68° NNW 10:35:30 10° ENE visible
27 Apr -2.5 12:06:04 10° WNW 12:09:17 38° N 12:12:28 10° ENE visible
